Denton, TX

11:22 AM CDT on June 25, 2018 (GMT -0500)
Denton Municipal

Weather History for KDTO - September, 2017

Change the Weather History Date:

Thursday, September 14, 2017

  Actual Average Record
Temperature  
Mean Temperature 79 °F -  
Max Temperature 96 °F 87 °F 99 °F (2000)
Min Temperature 63 °F 64 °F 54 °F (2006)
Cooling Degree Days 14    
Growing Degree Days 29 (Base 50)    
Moisture  
Dew Point 63 °F    
Average Humidity 59    
Maximum Humidity 84    
Minimum Humidity 32    
Precipitation  
Precipitation 0.00 in - - ()
Sea Level Pressure  
Sea Level Pressure 29.79 in    
Wind  
Wind Speed 6 mph (SE)    
Max Wind Speed 16 mph    
Max Gust Speed 22 mph    
Visibility 10 miles    
Events      
Averages and records for this station are not official NWS values.
T = Trace of Precipitation, MM = Missing Value Source: NWS Daily Summary

Daily Weather History Graph

Daily Weather History Graph

Search for Another Location

Airport or City:

Astronomy

Sep. 14, 2017 Rise Set
Actual Time 7:11 AM CDT 7:36 PM CDT
Civil Twilight 6:47 AM CDT 8:00 PM CDT
Nautical Twilight 6:17 AM CDT 8:29 PM CDT
Astronomical Twilight 5:48 AM CDT 8:59 PM CDT
Moon 1:22 AM CDT (9/14) 3:41 PM CDT (9/14)
Length of Visible Light 13h 13m
Length of Day
12h 24m
Waning Crescent, 34% of the Moon is Illuminated
Sep 14
Waning Crescent
Sep 20
New
Sep 27
First Quarter
Oct 5
Full
Oct 12
Last Quarter

Hourly Weather History & Observations

Time (CDT) Temp. Heat Index Dew Point Humidity Pressure Visibility Wind Dir Wind Speed Gust Speed Precip Events Conditions
12:53 AM 64.9 °F - 57.0 °F 75% 29.80 in 10.0 mi Calm Calm - N/A   Clear
1:53 AM 64.9 °F - 57.0 °F 75% 29.79 in 10.0 mi SE 3.5 mph - N/A   Clear
2:53 AM 64.0 °F - 57.0 °F 78% 29.79 in 10.0 mi ESE 3.5 mph - N/A   Clear
3:53 AM 64.9 °F - 57.0 °F 75% 29.79 in 10.0 mi SE 4.6 mph - N/A   Clear
4:53 AM 64.9 °F - 57.9 °F 78% 29.79 in 10.0 mi SE 3.5 mph - N/A   Clear
5:53 AM 63.0 °F - 57.9 °F 84% 29.81 in 10.0 mi SE 4.6 mph - N/A   Clear
6:53 AM 64.0 °F - 57.9 °F 80% 29.82 in 10.0 mi SE 3.5 mph - N/A   Clear
7:53 AM 66.0 °F - 61.0 °F 84% 29.83 in 10.0 mi SE 5.8 mph - N/A   Clear
8:53 AM 71.1 °F - 63.0 °F 75% 29.84 in 10.0 mi SE 9.2 mph - N/A   Clear
9:53 AM 77.0 °F - 66.0 °F 69% 29.84 in 10.0 mi SSE 8.1 mph - N/A   Clear
10:53 AM 81.0 °F 83.3 °F 66.9 °F 62% 29.84 in 10.0 mi SSE 8.1 mph - N/A   Clear
11:53 AM 86.0 °F 88.8 °F 66.9 °F 53% 29.83 in 10.0 mi SE 9.2 mph - N/A   Clear
12:53 PM 90.0 °F 92.8 °F 66.9 °F 46% 29.82 in 10.0 mi SSE 8.1 mph - N/A   Clear
1:53 PM 93.0 °F 97.4 °F 68.0 °F 44% 29.79 in 10.0 mi SSE 11.5 mph 21.9 mph N/A   Clear
2:53 PM 93.9 °F 96.1 °F 64.9 °F 38% 29.76 in 10.0 mi SE 9.2 mph 19.6 mph N/A   Clear
3:53 PM 95.0 °F 95.6 °F 62.1 °F 33% 29.74 in 10.0 mi SSE 9.2 mph 20.7 mph N/A   Clear
4:53 PM 95.0 °F 95.2 °F 61.0 °F 32% 29.73 in 10.0 mi SSE 11.5 mph - N/A   Clear
5:53 PM 95.0 °F 95.6 °F 62.1 °F 33% 29.74 in 10.0 mi SSE 12.7 mph - N/A   Clear
6:53 PM 91.9 °F 92.5 °F 62.1 °F 37% 29.74 in 10.0 mi SE 10.4 mph - N/A   Clear
7:53 PM 86.0 °F 86.3 °F 62.1 °F 44% 29.74 in 10.0 mi SE 8.1 mph - N/A   Clear
8:53 PM 86.0 °F 88.2 °F 66.0 °F 51% 29.77 in 10.0 mi SE 10.4 mph - N/A   Clear
9:53 PM 84.9 °F 87.1 °F 66.0 °F 53% 29.80 in 10.0 mi SSE 16.1 mph - N/A   Clear
10:53 PM 82.0 °F 84.5 °F 66.9 °F 60% 29.81 in 10.0 mi SSE 13.8 mph - N/A   Clear
11:53 PM 80.1 °F 82.3 °F 66.9 °F 64% 29.81 in 10.0 mi SSE 13.8 mph - N/A   Clear